Location: Carrières
(48.9495°N, 2.0407°E)
Time: 18:28:45
(UTC+00:00)

SR - Pass Details

Date: 25 April 2024
Orbit: 579 x 860 km, 66.7° (Epoch: 22 May)

Event Time Altitude Azimuth Distance (km) Brightness Sun altitude
Exits shadow 02:17:30 17° 278° (W) 1,844 ? -19.7°
Maximum altitude 02:20:18 27° 322° (NW) 1,413 ? -19.4°
Drops below altitude 10° 02:24:30 10° 19° (NNE) 2,170 ? -19.0°
Sets 02:27:05 0° 32° (NNE) 3,039 ? -18.7°
